{"data":{"norad_id":54102,"epoch":"2026-05-24T20:46:16.451616Z","epoch_age_seconds":97320,"freshness":"FRESH","line1":"1 54102U 22136BD  26144.86546819  .00000376  00000+0  41729-4 0  9992","line2":"2 54102  53.2148 352.1708 0001276  90.6556 269.4583 15.08838579198481","mean_motion":15.08838579,"eccentricity":0.0001276,"inclination_deg":53.2148,"raan_deg":352.1708,"arg_perigee_deg":90.6556,"mean_anomaly_deg":269.4583,"bstar":4.1729e-5,"rev_number":19848,"period_min":95.437644559326,"perigee_km":538.86501030418,"apogee_km":540.63045448789,"semimajor_km":6917.884732396,"source":"CELESTRAK","updated_at":"2026-05-25T13:38:17.658017Z"}}